Flag for Canada Weather past 2 weeks in Quesnel, British Columbia, Canada

Now
19 °F

Scattered clouds.


Feels Like: 19 °F
Forecast: 25 / 35 °F
Wind: 2 mph from North

Location: Quesnel Airport

Current Time: Jan 29, 2015 at 8:50:53 AM

Latest Report: Jan 29, 2015 at 8:00 AM


Visibility: 7 mi

Pressure: 30.43 "Hg

Humidity: 100%

Dew point: 19 °F

Location of QuesnelLocation

Historic Weather in Quesnel — Graph

°F

Quesnel temperature yesterday

Maximum temperature yesterday: 28 °F (at 1:00 AM)
Minimum temperature yesterday: 23 °F (at 8:00 AM)
Average temperature yesterday: 26 °F

Past Weeks' High & Low Weather Summary

 TemperatureHumidityPressure
High43 °F (Jan 25, 2:00 AM)100% (Jan 14, 8:00 PM)30.49 "Hg (Jan 14, 8:00 PM)
Low18 °F (Jan 17, 9:00 PM)65% (Jan 21, 6:00 PM)29.58 "Hg (Jan 18, 11:56 AM)
Average32 °F92%30.10 "Hg
* Reported Jan 14 7:00 AM — Jan 29 7:00 AM, Quesnel, Weather by CustomWeather, © 2014

Note: Actual official high and low records may vary slightly from our data, if they occured in-between our weather recording intervals... More about our weather records

Advertising

Quesnel weather history for previous 24 hours

 ConditionsComfort  
Time TempWeatherWind HumidityBarometerVisibility
7:00 AM
Jan 29
23 °FPassing clouds.6 mph100%30.43 "Hg7 mi
6:00 AM23 °FMostly cloudy.2 mph100%30.44 "Hg7 mi
5:00 AM25 °FIce fog.3 mph100%30.45 "Hg5 mi
4:51 AM25 °FIce fog.3 mph100%30.45 "Hg3 mi
4:00 AM25 °FIce fog.2 mph100%30.44 "Hg2 mi
3:00 AM25 °FIce fog.No wind100%30.45 "Hg1 mi
2:00 AM25 °FIce fog.No wind100%30.44 "Hg2 mi
1:57 AM25 °FIce fog.No wind100%30.44 "Hg2 mi
1:01 AM27 °FIce fog.No wind100%30.44 "Hg2 mi
12:03 AM25 °FIce fog.No wind100%30.45 "Hg2 mi
11:00 PM
Jan 28
23 °FIce fog.No wind100%30.44 "Hg4 mi
10:50 PM23 °FIce fog.No wind100%30.45 "Hg4 mi
10:00 PM25 °FIce fog.No wind100%30.43 "Hg2 mi
9:59 PM25 °FIce fog.No wind100%30.43 "Hg2 mi
9:00 PM25 °FIce fog.3 mph100%30.43 "Hg4 mi
8:00 PM27 °FIce fog.No wind100%30.44 "Hg3 mi
7:00 PM27 °FIce fog.No wind100%30.43 "Hg3 mi
6:00 PM25 °FIce fog.No wind100%30.44 "Hg1 mi
5:00 PM27 °FIce fog.No wind100%30.44 "Hg2 mi
4:00 PM28 °FIce fog.No wind100%30.44 "Hg5 mi
3:00 PM28 °FSunny.No wind100%30.44 "Hg8 mi
2:00 PM27 °FIce fog.No wind100%30.46 "Hg6 mi
1:00 PM27 °FScattered clouds.No wind100%30.47 "Hg7 mi
12:00 PM25 °FPartly sunny.2 mph100%30.49 "Hg9 mi
11:00 AM25 °FLow clouds.2 mph100%30.49 "Hg9 mi
10:00 AM25 °FLow clouds.5 mph100%30.48 "Hg9 mi
9:00 AM25 °FLow clouds.6 mph100%30.46 "Hg8 mi
8:00 AM23 °FLow clouds.6 mph100%30.45 "Hg9 mi
Weather by CustomWeather, © 2014

See weather overviewHow to use our weather pages